User: anonymous   Login
Location: Unspecified
(0.0000°N, 0.0000°E)
Time: 20:09:23
(UTC+00:00)
Language:

GONETS M04 - Orbit

View from above orbital plane
View from above orbital plane
View from above satellite
View from above satellite

Ground track
Ground track

The orbit data is extracted from the following two-line orbital elements,

1 38736U 12041D   19340.77868642  .00000024  00000-0  10208-3 0  9990
2 38736  82.4767 120.4573 0024266 219.7325 140.1978 12.43812625333940
Epoch (UTC): 06 December 2019 18:41:18
Eccentricity: 0.0024266
inclination: 82.4767°
perigee height: 1471 km
apogee height: 1509 km
right ascension of ascending node: 120.4573°
argument of perigee: 219.7325°
revolutions per day: 12.43812625
mean anomaly at epoch: 140.1978°
orbit number at epoch: 33394

The dashed part of the orbit path shows where the satellite is in the earth's shadow,  

DLR